Flag for U.S.A. Weather past 2 weeks in Compton, California, U.S.A.

Now
67 °F

Overcast.


Feels Like: 67 °F
Forecast: 62 / 74 °F
Wind: No wind

Location: Hawthorne Municipal Airport

Current Time: Oct 20, 2014 at 7:16:52 AM

Latest Report: Oct 20, 2014 at 5:53 AM


Visibility: 10 mi

Pressure: 29.90 "Hg

Humidity: 81%

Dew point: 61 °F

Location of ComptonLocation

Historic Weather in Compton — Graph

°F

Compton temperature yesterday

Maximum temperature yesterday: 75 °F (at 11:53 AM)
Minimum temperature yesterday: 63 °F (at 4:53 AM)
Average temperature yesterday: 69 °F

Past Weeks' High & Low Weather Summary

 TemperatureHumidityPressure
High90 °F (Oct 5, 11:53 AM)93% (Oct 7, 4:53 AM)30.02 "Hg (Oct 7, 4:53 AM)
Low63 °F (Oct 17, 5:53 AM)16% (Oct 6, 11:53 AM)29.80 "Hg (Oct 8, 4:53 PM)
Average71 °F71%29.91 "Hg
* Reported Oct 5 5:53 AM — Oct 20 5:53 AM, Compton, Weather by CustomWeather, © 2014

Note: Actual official high and low records may vary slightly from our data, if they occured in-between our weather recording intervals... More about our weather records

Advertising

Compton weather history for previous 24 hours

 ConditionsComfort  
Time TempWeatherWind HumidityBarometerVisibility
5:53 AM
Oct 20
67 °FOvercast.No wind81%29.90 "Hg10 mi
4:53 AM67 °FOvercast.No wind85%29.88 "Hg10 mi
3:53 AM66 °FOvercast.No wind84%29.88 "Hg10 mi
2:53 AM66 °FPassing clouds.No wind84%29.88 "Hg10 mi
1:53 AM67 °FClear.No wind81%29.89 "Hg10 mi
12:53 AM68 °FPassing clouds.No wind78%29.89 "Hg10 mi
11:53 PM
Oct 19
69 °FOvercast.6 mph79%29.88 "Hg10 mi
11:01 PM69 °FOvercast.7 mph79%29.89 "Hg10 mi
10:53 PM69 °FOvercast.6 mph79%29.89 "Hg10 mi
9:53 PM69 °FOvercast.5 mph81%29.88 "Hg10 mi
7:53 PM70 °FPassing clouds.6 mph79%29.86 "Hg10 mi
6:53 PM70 °FSunny.5 mph79%29.85 "Hg10 mi
5:53 PM72 °FSunny.6 mph71%29.83 "Hg10 mi
4:53 PM73 °FSunny.13 mph69%29.83 "Hg10 mi
3:53 PM73 °FSunny.8 mph62%29.85 "Hg10 mi
2:53 PM74 °FSunny.10 mph62%29.85 "Hg10 mi
1:53 PM75 °FSunny.12 mph60%29.87 "Hg10 mi
12:53 PM73 °FPassing clouds.9 mph66%29.89 "Hg10 mi
11:53 AM75 °FScattered clouds.9 mph62%29.90 "Hg10 mi
10:53 AM73 °FPassing clouds.3 mph62%29.91 "Hg10 mi
9:53 AM70 °FSunny.No wind73%29.92 "Hg10 mi
8:53 AM67 °FSunny.3 mph73%29.91 "Hg10 mi
7:53 AM65 °FClear.3 mph76%29.90 "Hg10 mi
Weather by CustomWeather, © 2014

See weather overviewHow to use our weather pages